TimeCST,TemperatureF,Dew PointF,Humidity,Sea Level PressureIn,VisibilityMPH,Wind Direction,Wind SpeedMPH,Gust SpeedMPH,PrecipitationIn,Events,Conditions,WindDirDegrees,DateUTC
12:53 AM,68.0,55.0,63,29.75,10.0,South,27.6,32.2,N/A,,Partly Cloudy,170,2012-11-11 06:53:00
1:53 AM,68.0,55.0,63,29.73,10.0,South,23.0,40.3,N/A,,Clear,180,2012-11-11 07:53:00
2:53 AM,68.0,55.9,65,29.77,10.0,SSW,23.0,33.4,N/A,,Mostly Cloudy,200,2012-11-11 08:53:00
3:53 AM,66.9,55.9,68,29.76,10.0,South,16.1,27.6,N/A,,Overcast,180,2012-11-11 09:53:00
4:53 AM,66.9,57.0,70,29.73,10.0,South,21.9,27.6,0.00,,Overcast,170,2012-11-11 10:53:00
5:53 AM,68.0,57.0,68,29.70,10.0,South,28.8,34.5,N/A,,Overcast,180,2012-11-11 11:53:00
6:53 AM,68.0,57.0,68,29.71,10.0,South,25.3,38.0,N/A,,Overcast,180,2012-11-11 12:53:00
7:53 AM,60.8,53.6,77,29.78,10.0,WNW,9.2,27.6,N/A,,Overcast,300,2012-11-11 13:53:00
8:05 AM,53.6,51.8,94,29.81,7.0,NW,23.0,29.9,N/A,Rain-Thunderstorm,Thunderstorms and Rain,310,2012-11-11 14:05:00
8:09 AM,51.8,50.0,94,29.80,1.8,NW,26.5,33.4,0.11,Rain-Thunderstorm,Thunderstorms and Rain,320,2012-11-11 14:09:00
8:12 AM,51.8,50.0,94,29.81,0.8,NW,24.2,35.7,0.18,Rain-Thunderstorm,Heavy Thunderstorms and Rain,310,2012-11-11 14:12:00
8:22 AM,51.8,50.0,94,29.82,1.2,NW,21.9,29.9,0.25,Rain,Rain,320,2012-11-11 14:22:00
8:53 AM,51.1,48.9,92,29.82,4.0,North,11.5,-,0.38,Rain,Light Rain,350,2012-11-11 14:53:00
9:22 AM,50.0,50.0,100,29.87,2.5,WNW,6.9,-,0.04,Rain,Rain,290,2012-11-11 15:22:00
9:30 AM,51.8,48.2,88,29.87,1.8,NW,9.2,-,0.08,Rain,Heavy Rain,320,2012-11-11 15:30:00
9:53 AM,50.0,48.9,96,29.86,3.0,NNW,6.9,-,0.14,Rain,Rain,330,2012-11-11 15:53:00
10:25 AM,50.0,50.0,100,29.88,2.0,NW,8.1,-,0.08,Rain,Rain,320,2012-11-11 16:25:00
10:53 AM,50.0,50.0,100,29.90,2.0,WNW,5.8,-,0.13,Rain,Rain,300,2012-11-11 16:53:00
11:07 AM,50.0,50.0,100,29.91,3.0,NNW,6.9,-,0.03,Rain,Light Rain,330,2012-11-11 17:07:00
11:10 AM,50.0,50.0,100,29.92,4.0,WNW,5.8,-,0.03,Rain,Light Rain,290,2012-11-11 17:10:00
11:53 AM,48.9,48.9,100,29.89,3.0,West,3.5,-,0.15,Rain,Rain,260,2012-11-11 17:53:00
11:58 AM,48.2,48.2,100,29.91,2.0,West,5.8,-,0.02,Rain,Rain,270,2012-11-11 17:58:00
12:53 PM,48.0,48.0,100,29.91,4.0,West,9.2,-,0.17,Rain,Rain,270,2012-11-11 18:53:00
1:07 PM,46.4,46.4,100,29.92,2.0,WNW,16.1,-,0.03,Rain,Rain,300,2012-11-11 19:07:00
1:49 PM,42.8,42.8,100,29.94,6.0,NW,8.1,-,0.11,Rain,Rain,320,2012-11-11 19:49:00
1:53 PM,42.1,42.1,100,29.93,4.0,NW,9.2,-,0.13,Rain,Rain,310,2012-11-11 19:53:00
2:53 PM,37.9,36.0,93,29.97,10.0,NW,13.8,-,0.03,Rain,Light Rain,320,2012-11-11 20:53:00
3:53 PM,37.0,36.0,96,30.01,10.0,NW,10.4,-,0.00,,Overcast,310,2012-11-11 21:53:00
4:49 PM,35.6,33.8,93,30.04,10.0,NW,11.5,-,N/A,,Overcast,320,2012-11-11 22:49:00
4:53 PM,36.0,34.0,93,30.05,10.0,NW,12.7,-,N/A,,Overcast,310,2012-11-11 22:53:00
5:04 PM,35.6,33.8,93,30.07,10.0,NW,11.5,-,N/A,,Overcast,320,2012-11-11 23:04:00
5:50 PM,35.6,33.8,93,30.09,10.0,NW,11.5,-,N/A,,Overcast,320,2012-11-11 23:50:00
5:53 PM,35.1,33.1,92,30.10,10.0,NW,9.2,-,N/A,,Overcast,310,2012-11-11 23:53:00
7:31 PM,33.8,30.2,87,30.16,10.0,NW,13.8,-,N/A,,Overcast,320,2012-11-12 01:31:00
7:53 PM,34.0,28.9,82,30.18,10.0,NW,16.1,-,N/A,,Overcast,320,2012-11-12 01:53:00
8:40 PM,33.8,28.4,81,30.20,10.0,NW,11.5,-,N/A,,Scattered Clouds,320,2012-11-12 02:40:00
8:53 PM,33.1,28.0,82,30.22,10.0,NW,9.2,-,N/A,,Clear,320,2012-11-12 02:53:00
9:53 PM,30.9,28.0,89,30.25,10.0,NW,4.6,-,N/A,,Clear,310,2012-11-12 03:53:00
10:53 PM,30.0,28.0,92,30.25,10.0,NW,5.8,-,N/A,,Clear,310,2012-11-12 04:53:00
11:53 PM,30.0,25.0,82,30.28,10.0,NW,6.9,-,N/A,,Clear,310,2012-11-12 05:53:00